Location: Unspecified
(49.9820°N, 20.4363°E)
Time: 06:10:48
(UTC+02:00)

Tiros 1 despin weight - All Passes

Search period start: 14 May 2026 00:00
Search period end: 24 May 2026 00:00
Orbit: 555 x 591 km, 48.2° (Epoch: 12 May)

Date Brightness Start Highest point End Pass type
(mag) Time Alt. Az. Time Alt. Az. Time Alt. Az.
14 May - 06:02:45 10° SSW 06:06:02 22° SSE 06:09:19 10° E daylight
14 May - 07:41:55 10° WSW 07:46:03 55° SSE 07:50:09 10° E daylight
14 May - 09:22:14 10° W 09:26:25 68° S 09:30:35 10° ESE daylight
14 May - 11:02:47 10° W 11:06:39 36° SSW 11:10:31 10° SE daylight
14 May - 12:45:09 10° WSW 12:46:19 11° SW 12:47:30 10° SSW daylight
15 May - 06:04:00 10° SSW 06:07:40 29° SSE 06:11:20 10° E daylight
15 May - 07:43:39 10° WSW 07:47:49 63° S 07:51:59 10° E daylight
15 May - 09:24:03 10° W 09:28:12 63° S 09:32:21 10° ESE daylight
15 May - 11:04:42 10° W 11:08:20 28° SSW 11:11:56 10° SSE daylight
16 May - 04:28:13 10° SSE 04:29:40 12° SE 04:31:06 10° ESE daylight
16 May - 06:05:27 10° SW 06:09:21 37° SSE 06:13:15 10° E daylight
16 May - 07:45:24 10° WSW 07:49:36 68° S 07:53:47 10° E daylight
16 May - 09:25:51 10° W 09:29:58 55° SSW 09:34:04 10° ESE daylight
16 May - 11:06:44 10° W 11:09:57 22° SSW 11:13:11 10° SSE daylight
17 May - 04:28:31 10° S 04:31:12 16° SE 04:33:53 10° ESE daylight
17 May - 06:07:00 10° SW 06:11:04 46° SSE 06:15:07 10° E daylight
17 May - 07:47:11 10° W 07:51:23 70° S 07:55:34 10° E daylight
17 May - 09:27:40 10° W 09:31:42 46° SSW 09:35:43 10° SE daylight
17 May - 11:08:58 10° WSW 11:11:33 16° SW 11:14:06 10° S daylight
18 May - 04:29:28 10° SSW 04:32:47 22° SSE 04:36:05 10° E daylight
18 May - 06:08:39 10° WSW 06:12:48 55° SSE 06:16:55 10° E daylight
18 May - 07:48:58 10° W 07:53:10 68° S 07:57:21 10° ESE daylight
18 May - 09:29:31 10° W 09:33:24 37° SSW 09:37:15 10° SE daylight
18 May - 11:11:52 10° WSW 11:13:04 11° SW 11:14:16 10° SSW daylight
19 May - 04:30:42 10° SSW 04:34:25 29° SSE 04:38:05 10° E daylight
19 May - 06:10:21 10° WSW 06:14:33 63° S 06:18:43 10° E daylight
19 May - 07:50:45 10° W 07:54:56 63° S 07:59:05 10° ESE daylight
19 May - 09:31:25 10° W 09:35:04 28° SSW 09:38:40 10° SSE daylight
20 May - 02:54:52 10° SSE 02:56:22 12° SE 02:57:51 10° ESE visible
20 May - 04:32:07 10° SW 04:36:04 37° SSE 04:39:59 10° E daylight
20 May - 06:12:05 10° WSW 06:16:19 69° S 06:20:30 10° E daylight
20 May - 07:52:32 10° W 07:56:41 55° SSW 08:00:47 10° ESE daylight
20 May - 09:33:25 10° W 09:36:40 22° SSW 09:39:53 10° SSE daylight
21 May - 02:55:10 10° S 02:57:53 17° SE 03:00:35 10° ESE visible
21 May - 04:33:39 10° SW 04:37:45 46° SSE 04:41:49 10° E daylight
21 May - 06:13:51 10° W 06:18:04 70° S 06:22:16 10° E daylight
21 May - 07:54:21 10° W 07:58:23 46° SSW 08:02:24 10° SE daylight
21 May - 09:35:39 10° WSW 09:38:14 16° SW 09:40:48 10° S daylight
22 May - 02:56:06 10° SSW 02:59:27 22° SSE 03:02:47 10° E visible
22 May - 04:35:17 10° WSW 04:39:28 55° SSE 04:43:36 10° E daylight
22 May - 06:15:36 10° W 06:19:50 68° S 06:24:01 10° ESE daylight
22 May - 07:56:10 10° W 08:00:04 37° SSW 08:03:56 10° SE daylight
22 May - 09:38:29 10° WSW 09:39:44 11° SW 09:40:59 10° SSW daylight
23 May - 02:57:19 10° SSW 03:01:03 29° SSE 03:04:45 10° E visible
23 May - 04:36:58 10° WSW 04:41:11 63° S 04:45:23 10° E daylight
23 May - 06:17:22 10° W 06:21:35 63° S 06:25:45 10° ESE daylight
23 May - 07:58:03 10° W 08:01:42 29° SSW 08:05:20 10° SSE daylight
